Rock Hill, SC

11:46 AM EDT on August 28, 2016 (GMT -0400)
Rock Hill-York County-Bryant

Weather History for KUZA - May, 2014

Change the Weather History Date:

Friday, May 23, 2014

  Actual Average Record
Temperature  
Mean Temperature 76 °F -  
Max Temperature 88 °F 81 °F 96 °F (1962)
Min Temperature 63 °F 60 °F 39 °F (2002)
Cooling Degree Days 10    
Growing Degree Days 26 (Base 50)    
Moisture  
Dew Point 62 °F    
Average Humidity 71    
Maximum Humidity 97    
Minimum Humidity 37    
Precipitation  
Precipitation 0.35 in - - ()
Sea Level Pressure  
Sea Level Pressure 29.98 in    
Wind  
Wind Speed 4 mph (NW)    
Max Wind Speed 23 mph    
Max Gust Speed 39 mph    
Visibility 7 miles    
Events Rain , Thunderstorm    
Averages and records for this station are not official NWS values.
T = Trace of Precipitation, MM = Missing Value Source: NWS Daily Summary

Daily Weather History Graph

Daily Weather History Graph

Search for Another Location

Airport or City:

Trip Planner

Search our weather history database for the weather conditions in past years. The results will help you decide how hot, cold, wet, or windy it might be!

Date:

Astronomy

May. 23, 2014 Rise Set
Actual Time 6:15 AM EDT 8:26 PM EDT
Civil Twilight 5:46 AM EDT 8:55 PM EDT
Nautical Twilight 5:11 AM EDT 9:30 PM EDT
Astronomical Twilight 4:33 AM EDT 10:08 PM EDT
Moon 2:56 AM EDT (5/23) 3:29 PM EDT (5/23)
Length of Visible Light 15h 08m
Length of Day
14h 11m
Waning Crescent, 27% of the Moon is Illuminated
May 23
Waning Crescent
May 28
New
Jun 5
First Quarter
Jun 13
Full
Jun 19
Last Quarter

Hourly Weather History & Observations

Time (EDT) Temp. Heat Index Dew Point Humidity Pressure Visibility Wind Dir Wind Speed Gust Speed Precip Events Conditions
12:54 AM 72.0 °F - 63.0 °F 73% 29.94 in 10.0 mi Calm Calm - N/A   Clear
1:54 AM 71.1 °F - 63.0 °F 75% 29.94 in 10.0 mi Calm Calm - N/A   Clear
2:54 AM 66.9 °F - 62.1 °F 84% 29.94 in 10.0 mi Calm Calm - N/A   Clear
3:54 AM 63.0 °F - 62.1 °F 97% 29.94 in 8.0 mi Calm Calm - N/A   Clear
4:54 AM 63.0 °F - 61.0 °F 93% 29.96 in 8.0 mi Calm Calm - N/A   Clear
5:54 AM 64.0 °F - 62.1 °F 93% 29.97 in 8.0 mi Calm Calm - N/A   Clear
6:54 AM 64.9 °F - 62.1 °F 90% 29.98 in 6.0 mi Calm Calm - N/A   Clear
7:54 AM 73.0 °F - 64.0 °F 73% 29.99 in 9.0 mi WNW 5.8 mph - N/A   Clear
8:54 AM 78.1 °F - 64.9 °F 64% 30.00 in 8.0 mi WNW 6.9 mph - N/A   Clear
9:54 AM 81.0 °F 82.7 °F 64.9 °F 58% 30.04 in 9.0 mi WNW 10.4 mph - N/A   Clear
10:54 AM 79.0 °F - 61.0 °F 54% 30.01 in 9.0 mi NNE 9.2 mph 21.9 mph N/A   Partly Cloudy
11:54 AM 82.9 °F 83.2 °F 60.1 °F 46% 30.00 in 10.0 mi Variable 3.5 mph - N/A   Clear
12:54 PM 84.9 °F 84.8 °F 60.1 °F 43% 29.99 in 10.0 mi Variable 3.5 mph - N/A   Clear
1:54 PM 88.0 °F 87.1 °F 59.0 °F 37% 29.97 in 10.0 mi NNW 10.4 mph 18.4 mph N/A   Clear
2:54 PM 87.1 °F 86.1 °F 57.9 °F 37% 29.97 in 10.0 mi NNW 12.7 mph - N/A   Clear
3:54 PM 86.0 °F 85.4 °F 59.0 °F 40% 29.95 in 10.0 mi WNW 11.5 mph - N/A   Clear
4:54 PM 87.1 °F 86.5 °F 59.0 °F 39% 29.94 in 10.0 mi WSW 4.6 mph - N/A   Clear
5:54 PM 84.0 °F 84.5 °F 62.1 °F 47% 29.93 in 10.0 mi NNW 9.2 mph - N/A   Partly Cloudy
5:58 PM 82.9 °F 84.0 °F 63.0 °F 51% 29.96 in 10.0 mi North 8.1 mph - N/A Thunderstorm Thunderstorm
6:11 PM 75.9 °F - 63.0 °F 64% 30.01 in 1.5 mi South 23.0 mph 39.1 mph 0.04 in Rain , Thunderstorm Thunderstorms and Rain
6:16 PM 68.0 °F - 60.1 °F 76% 30.02 in 0.5 mi SW 20.7 mph 39.1 mph 0.12 in Rain , Thunderstorm Heavy Thunderstorms and Rain
6:27 PM 66.9 °F - 61.0 °F 81% 30.00 in 1.8 mi North 9.2 mph - 0.23 in Rain , Thunderstorm Light Thunderstorms and Rain
6:33 PM 66.9 °F - 62.1 °F 84% 29.99 in 8.0 mi SE 6.9 mph - 0.26 in Thunderstorm Scattered Clouds
6:54 PM 70.0 °F - 64.0 °F 81% 29.96 in 6.0 mi Calm Calm - 0.35 in Thunderstorm Haze
7:16 PM 71.1 °F - 64.9 °F 81% 29.99 in 6.0 mi WSW 6.9 mph - N/A   Haze
7:54 PM 70.0 °F - 66.0 °F 87% 29.95 in 4.0 mi North 3.5 mph - N/A   Clear
8:54 PM 66.9 °F - 66.0 °F 97% 29.97 in 4.0 mi Calm Calm - N/A   Clear
9:54 PM 66.0 °F - 64.0 °F 93% 29.98 in 5.0 mi Calm Calm - N/A   Clear
10:54 PM 66.0 °F - 64.9 °F 96% 29.99 in 4.0 mi Calm Calm - N/A   Clear
11:54 PM 64.9 °F - 63.0 °F 93% 30.00 in 6.0 mi Calm Calm - N/A   Clear